Regional Weather Roundup
Issued by NWS Grand Forks, ND

Home | Current Version | Previous Version | Graphics & Text | Print | Product List | Glossary On
Versions: 1 2 3 4 5 6 7 8 9 10 11 12 13 14 15 16 17 18 19 20 21 22 23 24 25 26 27 28 29 30 31 32 33 34 35 36 37 38 39 40 41 42 43 44 45 46 47 48 49 50
000
ASUS43 KFGF 262010
RWRFGF
PRAIRIE TO PINES  WEATHER ROUNDUP
NATIONAL WEATHER SERVICE EASTERN NORTH DAKOTA/GRAND FORKS ND
300 PM CDT SUN MAR 26 2017

 **SATELLITE DATA USED TO AUGMENT SKY COVER AT AUTOMATED STATIONS**
 *****  WEATHER ACROSS EASTERN NORTH DAKOTA  *****

CITY           SKY/WX    TMP DP  RH WIND       PRES   REMARKS
GRAND FORKS    PTSUNNY   46  40  79 S5        29.94S
GRAND FRKS AFB FAIR      48  41  74 CALM      29.94F
DEVILS LAKE    FAIR      51  38  60 CALM      29.92F
FARGO          CLOUDY    44  38  79 W5        29.96S
WAHPETON ARPT    N/A     43  34  70 CALM      29.96R
$$

 ***** WEATHER ACROSS CENTRAL AND WESTERN NORTH DAKOTA  *****

CITY           SKY/WX    TMP DP  RH WIND       PRES   REMARKS
BISMARCK       FAIR      60  36  40 VRB6      29.91F
MINOT          FAIR      59  42  53 NE10      29.88F
JAMESTOWN      CLOUDY    49  39  68 NE6       29.92S
MINOT AFB      FAIR      53  41  65 E8        29.87F
GARRISON         N/A     60  36  40 W8        29.89S
WILLISTON      PTSUNNY   61  34  36 W12G17    29.86F
DICKINSON      FAIR      59  25  27 CALM      29.87F
HETTINGER      CLOUDY    56  32  40 N7        29.91F
$$

 *****  OTHER AIRPORT OBSERVATIONS IN OUR AREA  *****

CITY           SKY/WX    TMP DP  RH WIND       PRES   REMARKS
WALHALLA       NOT AVBL
GRAFTON AIRPOR FAIR      45  39  81 SE3       29.97S
VALLEY CITY AR CLOUDY    46  45  93 NW3       29.95S
CANDO          NOT AVBL
CAVALIER APRT  FAIR      45  39  81 N6        29.95S
GWINNER        CLOUDY    48  37  66 MISG      29.94F
SHEYENNE NWR     N/A     47  36  65 W3        29.95S
ROLLA          FAIR      43  41  93 VRB5      29.92F
 ***** THE ABOVE OBSERVATIONS ARE NON NWS ARE NOT QUALITY
       CONTROLLED AND MAY MIS-REPORT RAIN FOR SNOW...
$$

  *****  WEATHER ACROSS NORTHERN MINNESOTA  *****

CITY           SKY/WX    TMP DP  RH WIND       PRES   REMARKS
FLAG ISLAND    FAIR      36  32  87 CALM      29.95S
WARROAD        FAIR      41  36  81 W3        29.95F
ROSEAU         FAIR      41  36  81 W3        29.95S
HALLOCK        PTSUNNY   39  36  87 CALM      29.96S
THF RVR FALLS  CLOUDY   N/A N/A N/A SW6       29.95F
BAUDETTE       CLOUDY    47  34  60 VRB3      29.93F
WASKISH        CLOUDY    43  34  70 W7        29.94F
CROOKSTON      PTSUNNY   43  37  81 SW6       29.96F
GREENBUSH NDAW   N/A     43  37  81 S5          N/A
$$
  *****  WEATHER ACROSS CENTRAL AND WEST MINNESOTA  *****

CITY           SKY/WX    TMP DP  RH WIND       PRES   REMARKS
FOSSTON        PTSUNNY   48  36  61 W6        29.95S
BEMIDJI        FAIR      43  32  65 CALM      29.93F
PARK RAPIDS    PTSUNNY   45  31  58 W6        29.92S
ELBOW LAKE     CLOUDY    44  35  69 CALM      29.93S
WADENA         FAIR      45  34  65 CALM      29.92S
DETROIT LAKES  FAIR      45  34  65 CALM      29.94S
MOORHEAD       CLOUDY    43  37  81 W3        29.97S
FERGUS FALLS   CLOUDY    45  36  70 CALM      29.97S
MORRIS MN      FAIR      48  37  66 N3        29.91F
STAPLES        CLOUDY    43  32  65 NE3       29.92F
$$
  *****  WEATHER ELSEWHERE ACROSS MINNESOTA  *****

CITY           SKY/WX    TMP DP  RH WIND       PRES   REMARKS
DULUTH         CLOUDY    36  34  92 NE5       29.91F
INTRNTL FALLS  FAIR      44  32  62 N6        29.94F
ELY            CLOUDY    36  28  75 CALM      29.92F
CLOQUET        CLOUDY    36  34  93 N3        29.91F
WHEATON        CLOUDY    45  36  70 W10       29.96S
BRAINERD       CLOUDY    42  33  70 N8        29.92F
HIBBING        CLOUDY    38  32  79 N5        29.92F
ALEXANDRIA     CLOUDY    46  35  65 MISG      29.92F
SAINT CLOUD    CLOUDY    40  36  86 N8        29.91F
MINNEAPOLIS    CLOUDY    42  36  79 N6        29.90F
$$

  *****  WEATHER ACROSS SOUTH DAKOTA  *****

CITY           SKY/WX    TMP DP  RH WIND       PRES   REMARKS
SIOUX FALLS    CLOUDY    45  38  76 N5        29.93F
BROOKINGS      CLOUDY    40  36  86 NW3       29.93S
WATERTOWN      CLOUDY    41  36  82 CALM      29.93S
HURON          CLOUDY    45  37  73 W3        29.95S
SISSETON         N/A     42  38  85 W3        29.94R
ABERDEEN       CLOUDY    46  36  68 W6        29.95S
MITCHELL       CLOUDY    47  38  71 NE5       29.94F
PIERRE         CLOUDY    42  38  85 SW8       29.93F
MOBRIDGE       FAIR      51  35  54 VRB3      29.91F
RAPID CITY     LGT RAIN  43  39  86 N15       29.94R
$$

  *****  SOME WEATHER IN NEARBY STATES *****

CITY           SKY/WX    TMP DP  RH WIND       PRES   REMARKS
GLASGOW MT     FAIR      55  22  27 W10       29.90F
GREAT FALLS MT FAIR      52  16  24 SW13G28   29.86F
CHEYENNE WY    CLOUDY    42  34  73 N16G22    29.93S
SCOTTSBLUFF NE CLOUDY    54  34  46 N9        29.90S
OMAHA NE       CLOUDY    48  40  73 NW5       29.91F
DES MOINES IA  CLOUDY    47  44  90 W10       29.89S
DAVENPORT IA   CLOUDY    52  52 100 SW9       29.83R FOG
CHICAGO IL     CLOUDY    62  51  67 W9        29.80S
EAU CLAIRE WI  CLOUDY    41  37  86 N6        29.87S
LA CROSSE WI   CLOUDY    43  39  86 N6        29.86F FOG
$$

  *****  SOME NATIONAL WEATHER *****

CITY           SKY/WX    TMP DP  RH WIND       PRES   REMARKS
LA GUARDIA NY  CLOUDY    42  34  73 NE15      30.41F
RALEIGH NC     PTSUNNY   76  49  38 S14G21    30.15F
ATLANTA GA     PTSUNNY   77  54  44 SW15      30.06F
NEW ORLEANS LA FAIR      80  66  62 S13       30.00F
OKLAHOMA CITY  CLOUDY    72  52  49 S24G35    29.73F
ALBUQUERQUE NM FAIR      62  25  24 NW12      29.95F
SALT LAKE CITY PTSUNNY   54  26  34 CALM      30.02F
LOS ANGELES CA FAIR      65  54  67 SW13      30.07S
BOISE ID       FAIR      57  29  34 S17       29.90S
SEATTLE WA     LGT RAIN  48  42  80 E7        29.77F
$$

*** WEATHER ACROSS MANITOBA...SASKATCHEWAN AND ONTARIO ***
                ***ONTARIO***

CITY           SKY/WX    TMP DP  RH WIND       PRES   REMARKS
GERALDTON      CLOUDY    36  27  69 E6        29.95F
THUNDER BAY    LGT RAIN  36  36 100 NE7       29.96F
SIOUX LOOKOUT  PTSUNNY   41  30  65 NW6       29.91F
TORONTO        CLOUDY    39  36  87 E10G17    30.05F
BIG TROUT LK   CLOUDY    39  28  65 SW9       29.84F
PICKLE LAKE    MOSUNNY   43  28  56 S8        29.88F
DRYDEN         CLOUDY    39  32  75 SW6       29.92F
KENORA         PTSUNNY   37  32  81 VRB2      29.94S
$$
                *** MANITOBA***

CITY           SKY/WX    TMP DP  RH WIND       PRES   REMARKS
BRANDON        MOSUNNY   43  36  75 E9        29.93F
DAUPHIN        MOSUNNY   39  34  81 NE10      29.94F
ISLAND LAKE    MOSUNNY   32  23  69 W12       29.91S WCI  23
PILOT MOUND      N/A     43  36  75 E5          N/A
THE PAS        MOSUNNY   28  19  69 W3        29.97F
THOMPSON       CLOUDY    25  19  80 NW8       29.94R WCI  16
WINNIPEG       PTSUNNY   43  37  81 N8        29.95F
LYNN LAKE      MOSUNNY   28  19  69 N8        29.96S WCI  20
CHURCHILL      LGT SNOW  14  10  85 NE13      29.99R DRFTSNOWWCI   0
GILLAM         FLURRIES  25  19  80 N15       29.88R WCI  12
$$
                ***SASKATCHEWAN***

CITY           SKY/WX    TMP DP  RH WIND       PRES   REMARKS
ESTEVAN        PTSUNNY   54  41  62 VRB7      29.85F
KINDERSLEY     PTSUNNY   36  32  87 E8        29.86S
LLOYDMINSTER   MOSUNNY   39  34  81 S6        29.87F
PRINCE ALBERT  CLOUDY    32  25  74 E6        29.93S
REGINA         MOSUNNY   55  27  33 SW7       29.84F
YORKTON        CLOUDY    39  36  87 E5        29.89F
N. BATTLEFORD  PTSUNNY   37  32  81 SE12      29.92S
LA RONGE       MOSUNNY   30  21  69 VRB3      29.97F
SASKATOON      CLOUDY    36  30  80 NE9       29.91S
SWIFT CURRENT  SUNNY     52  23  32 W16       29.82F
$$
NOTE: THESE ARE AUTOMATED STATIONS WITH LIMITED QUALITY CONTROL
      "FAIR" INDICATES FEW OR NO CLOUDS BELOW 12,000 FEET WITH NO
      SIGNIFICANT WEATHER AND/OR OBSTRUCTIONS TO VISIBILITY.
      SKY/WX - SKY CONDITION AND SIGNIFICANT WEATHER.
      TMP - AIR TEMPERATURE.    DP   - DEWPOINT TEMPERATURE.
      RH  - RELATIVE HUMIDITY.  PRES - PRESSURE.
      HX  - HEAT INDEX.         WCI  - WIND CHILL INDEX.
$




USA.gov is the U.S. government's official web portal to all federal, state and local government web resources and services.